Imperial, CA

11:41 AM PST on February 21, 2017 (GMT -0800)
Imperial County

Weather History for KIPL - January, 2013

Change the Weather History Date:

Thursday, January 24, 2013

  Actual Average Record
Temperature  
Mean Temperature 64 °F -  
Max Temperature 72 °F 71 °F 84 °F (1951)
Min Temperature 57 °F 43 °F 33 °F (1966)
Growing Degree Days 14 (Base 50)    
Moisture  
Dew Point 44 °F    
Average Humidity 50    
Maximum Humidity 64    
Minimum Humidity 33    
Precipitation  
Precipitation 0.00 in - - ()
Sea Level Pressure  
Sea Level Pressure 30.12 in    
Wind  
Wind Speed 2 mph (ENE)    
Max Wind Speed 9 mph    
Max Gust Speed -    
Visibility 10 miles    
Events Rain    
Averages and records for this station are not official NWS values.
T = Trace of Precipitation, MM = Missing Value Source: NWS Daily Summary

Daily Weather History Graph

Daily Weather History Graph

Search for Another Location

Airport or City:

Trip Planner

Search our weather history database for the weather conditions in past years. The results will help you decide how hot, cold, wet, or windy it might be!

Date:

Astronomy

Jan. 24, 2013 Rise Set
Actual Time 6:41 AM PST 5:07 PM PST
Civil Twilight 6:15 AM PST 5:33 PM PST
Nautical Twilight 5:45 AM PST 6:03 PM PST
Astronomical Twilight 5:16 AM PST 6:33 PM PST
Moon 3:15 PM PST (1/24) 4:40 AM PST (1/24)
Length of Visible Light 11h 18m
Length of Day
10h 25m
Waxing Gibbous, 95% of the Moon is Illuminated
Jan 24
Waxing Gibbous
Jan 26
Full
Feb 3
Last Quarter
Feb 9
New
Feb 17
First Quarter

Hourly Weather History & Observations

Time (PST) Temp. Dew Point Humidity Pressure Visibility Wind Dir Wind Speed Gust Speed Precip Events Conditions
12:53 AM 60.1 °F 41.0 °F 49% 30.07 in 10.0 mi Calm Calm - N/A   Overcast
1:53 AM 61.0 °F 42.1 °F 50% 30.08 in 10.0 mi Calm Calm - N/A   Mostly Cloudy
2:53 AM 61.0 °F 37.9 °F 42% 30.08 in 10.0 mi Calm Calm - N/A   Overcast
3:53 AM 61.0 °F 37.9 °F 42% 30.05 in 10.0 mi Calm Calm - N/A   Overcast
4:53 AM 61.0 °F 44.1 °F 54% 30.06 in 10.0 mi ESE 5.8 mph - 0.00 in Rain Light Rain
5:53 AM 60.1 °F 45.0 °F 57% 30.12 in 10.0 mi Calm Calm - 0.00 in   Overcast
6:53 AM 59.0 °F 46.0 °F 62% 30.10 in 10.0 mi East 8.1 mph - N/A   Overcast
7:53 AM 59.0 °F 44.1 °F 58% 30.12 in 10.0 mi East 9.2 mph - N/A   Overcast
8:53 AM 60.1 °F 45.0 °F 57% 30.14 in 10.0 mi East 4.6 mph - N/A   Overcast
9:53 AM 61.0 °F 45.0 °F 56% 30.17 in 10.0 mi North 3.5 mph - N/A   Overcast
10:53 AM 64.0 °F 45.0 °F 50% 30.17 in 10.0 mi Calm Calm - N/A   Mostly Cloudy
11:53 AM 66.9 °F 45.0 °F 45% 30.15 in 10.0 mi Calm Calm - N/A   Mostly Cloudy
12:53 PM 72.0 °F 42.1 °F 34% 30.13 in 10.0 mi Calm Calm - N/A   Overcast
1:53 PM 72.0 °F 41.0 °F 33% 30.11 in 10.0 mi East 3.5 mph - N/A   Partly Cloudy
2:53 PM 71.1 °F 42.1 °F 35% 30.11 in 10.0 mi SSE 3.5 mph - N/A   Scattered Clouds
3:53 PM 70.0 °F 48.0 °F 46% 30.11 in 10.0 mi NW 8.1 mph - N/A   Partly Cloudy
4:53 PM 68.0 °F 46.0 °F 45% 30.12 in 10.0 mi NNW 4.6 mph - N/A   Partly Cloudy
5:53 PM 64.9 °F 45.0 °F 48% 30.13 in 10.0 mi Calm Calm - N/A   Clear
6:53 PM 64.0 °F 44.1 °F 48% 30.13 in 10.0 mi North 3.5 mph - N/A   Partly Cloudy
7:53 PM 62.1 °F 44.1 °F 52% 30.15 in 10.0 mi Calm Calm - N/A   Clear
8:53 PM 60.1 °F 45.0 °F 57% 30.15 in 10.0 mi Calm Calm - N/A   Clear
9:53 PM 57.9 °F 45.0 °F 62% 30.16 in 10.0 mi West 3.5 mph - N/A   Clear
10:53 PM 59.0 °F 44.1 °F 58% 30.16 in 10.0 mi Calm Calm - N/A   Partly Cloudy
11:53 PM 57.0 °F 45.0 °F 64% 30.15 in 10.0 mi West 5.8 mph - N/A   Partly Cloudy